Location: Garden Park
(34.0906°N, 117.2695°W)
Time: 13:28:16
(UTC+00:00)

Hubble Space Telescope - Pass Details

Date: 18 August 2024
Orbit: 507 x 509 km, 28.5° (Epoch: 07 September)

Event Time Altitude Azimuth Distance (km) Brightness Sun altitude
Exits shadow 10:56:08 18° 120° (ESE) 1,295 2.9 -26.0°
Drops below altitude 10° 10:57:21 10° 111° (ESE) 1,714 3.7 -25.8°
Sets 10:59:41 0° 102° (ESE) 2,600 4.8 -25.4°
